CDT,Max TemperatureF,Mean TemperatureF,Min TemperatureF,Max Dew PointF,MeanDew PointF,Min DewpointF,Max Humidity, Mean Humidity, Min Humidity, Max Sea Level PressureIn, Mean Sea Level PressureIn, Min Sea Level PressureIn, Max VisibilityMiles, Mean VisibilityMiles, Min VisibilityMiles, Max Wind SpeedMPH, Mean Wind SpeedMPH, Max Gust SpeedMPH,PrecipitationIn, CloudCover, Events, WindDirDegrees
2012-10-1,70,63,55,66,60,52,93,89,84,29.81,29.69,29.58,10,5,2,13,7,23,1.31,8,Rain-Thunderstorm,122
2012-10-2,70,64,58,65,60,55,100,83,66,30.01,29.82,29.65,10,6,0,13,4,20,0.07,8,Fog-Rain,246
2012-10-3,69,61,52,56,53,50,93,75,56,30.21,30.11,29.99,10,6,0,9,1,12,0.00,3,Fog,197
2012-10-4,74,63,51,59,52,48,96,73,49,30.31,30.26,30.22,10,5,1,10,2,14,0.00,0,,272
2012-10-5,75,64,52,58,53,50,96,73,49,30.26,30.17,29.99,10,6,2,9,2,13,0.00,1,,253
2012-10-6,66,56,45,56,46,39,93,77,61,30.13,30.08,29.95,10,8,0,14,6,20,0.13,6,Fog-Rain,355
2012-10-7,54,48,42,42,39,36,92,73,54,30.19,30.13,30.06,10,10,10,14,4,16,T,4,,344
2012-10-8,50,43,36,43,40,36,96,87,77,30.22,30.17,30.14,10,7,0,9,2,10,0.54,6,Fog-Rain,23
2012-10-9,57,45,32,46,40,32,100,83,66,30.19,30.14,30.05,10,6,0,9,2,15,0.00,5,Fog,166
2012-10-10,58,48,38,52,47,37,93,82,71,30.25,30.15,30.04,10,9,2,12,4,17,0.00,6,,278
2012-10-11,67,51,34,46,38,33,100,63,26,30.30,30.27,30.24,10,8,0,10,2,16,0.00,3,Fog,243
2012-10-12,61,56,51,57,53,47,93,80,67,30.32,30.27,30.22,10,6,1,21,3,31,0.20,7,Rain-Thunderstorm,2
2012-10-13,72,60,47,56,51,46,93,76,59,30.32,30.27,30.19,10,8,2,15,6,25,0.00,1,,0
2012-10-14,66,63,60,63,58,50,87,78,69,30.17,30.03,29.92,10,8,2,22,9,31,0.32,7,Rain-Thunderstorm,201
2012-10-15,65,55,44,61,50,41,96,70,44,30.01,29.96,29.91,10,8,0,17,4,22,0.00,3,Fog,282
2012-10-16,69,54,38,47,42,36,93,63,32,30.03,29.96,29.89,10,9,3,10,1,14,0.00,0,,127
2012-10-17,69,59,48,48,45,41,93,65,37,29.93,29.83,29.68,10,10,10,18,7,31,0.00,0,,170
2012-10-18,63,56,50,55,47,34,94,74,36,29.82,29.76,29.65,10,9,2,17,10,32,0.44,5,Rain-Thunderstorm,222
2012-10-19,63,53,42,39,36,31,82,56,30,29.82,29.75,29.69,10,10,9,17,5,24,0.00,4,,247
2012-10-20,58,50,41,42,41,39,89,72,55,30.03,29.92,29.82,10,10,7,13,4,20,0.00,5,,276
2012-10-21,71,55,38,47,41,36,100,68,35,30.17,30.14,30.05,10,8,0,9,1,13,0.00,1,Fog,221
2012-10-22,76,64,51,50,46,39,89,58,27,30.24,30.17,30.13,10,10,10,9,1,12,0.00,3,,163
2012-10-23,76,64,51,51,49,46,89,63,36,30.18,30.13,30.09,10,10,10,9,3,16,0.00,0,,187
2012-10-24,76,62,48,52,47,42,93,61,29,30.19,30.14,30.08,10,10,5,8,1,13,0.00,0,,145
2012-10-25,75,63,50,55,51,46,89,69,49,30.12,30.08,30.04,10,10,8,13,3,20,0.00,1,,176
2012-10-26,74,62,50,59,54,47,89,75,61,30.11,30.03,29.96,10,10,7,13,5,17,0.00,4,,320
2012-10-27,50,47,44,46,44,42,100,90,80,30.04,30.00,29.95,10,5,0,17,10,24,T,8,Fog-Rain,356
2012-10-28,44,43,42,43,39,32,96,82,67,30.00,29.96,29.91,10,9,4,18,11,25,0.01,8,,358
2012-10-29,47,41,34,32,27,16,76,61,45,30.00,29.93,29.78,10,10,10,20,13,33,0.00,5,,326
2012-10-30,46,41,36,28,24,18,70,54,37,29.81,29.73,29.69,10,10,10,22,14,32,0.00,5,,298
2012-10-31,52,43,34,25,22,18,59,43,27,29.93,29.85,29.79,10,10,10,14,10,23,0.00,1,,282